User: anonymous   Login
Location: Unspecified
(0.0000°N, 0.0000°E)
Time: 11:18:13
(UTC+00:00)
Language:

Sunsat (SO-35) - Orbit

View from above orbital plane
View from above orbital plane
View from above satellite
View from above satellite

Ground track
Ground track

The orbit data is extracted from the following two-line orbital elements,

1 25636U 99008C   21170.76673760  .00000015  00000-0  11961-4 0  9999
2 25636  96.4866  92.9986 0145515   0.4159 359.7132 14.44759714175825
Epoch (UTC): 19 June 2021 18:24:06
Eccentricity: 0.0145515
inclination: 96.4866°
perigee height: 639 km
apogee height: 846 km
right ascension of ascending node: 92.9986°
argument of perigee: 0.4159°
revolutions per day: 14.44759714
mean anomaly at epoch: 359.7132°
orbit number at epoch: 17582

The dashed part of the orbit path shows where the satellite is in the earth's shadow,  

DLR